Year,Month,Day,Hour,Minute,Value (Times are PST for temperature in C)
2014,07,14,00,00,23.20
2014,07,14,00,01,23.20
2014,07,14,00,02,23.20
2014,07,14,00,03,23.20
2014,07,14,00,04,23.20
2014,07,14,00,05,23.20
2014,07,14,00,06,23.10
2014,07,14,00,07,23.10
2014,07,14,00,08,23.10
2014,07,14,00,09,23.00
2014,07,14,00,10,23.00
2014,07,14,00,11,23.00
2014,07,14,00,12,23.00
2014,07,14,00,13,22.90
2014,07,14,00,14,22.90
2014,07,14,00,15,23.00
2014,07,14,00,16,23.00
2014,07,14,00,17,23.00
2014,07,14,00,18,23.00
2014,07,14,00,19,23.00
2014,07,14,00,20,22.90
2014,07,14,00,21,22.90
2014,07,14,00,22,22.90
2014,07,14,00,23,22.90
2014,07,14,00,24,22.90
2014,07,14,00,25,22.90
2014,07,14,00,26,22.80
2014,07,14,00,27,22.80
2014,07,14,00,28,22.80
2014,07,14,00,29,22.80
2014,07,14,00,30,22.90
2014,07,14,00,31,22.90
2014,07,14,00,32,22.90
2014,07,14,00,33,22.90
2014,07,14,00,34,22.90
2014,07,14,00,35,22.90
2014,07,14,00,36,22.90
2014,07,14,00,37,22.90
2014,07,14,00,38,22.90
2014,07,14,00,39,22.90
2014,07,14,00,40,22.90
2014,07,14,00,41,22.90
2014,07,14,00,42,22.90
2014,07,14,00,43,22.90
2014,07,14,00,44,22.90
2014,07,14,00,45,22.80
2014,07,14,00,46,22.80
2014,07,14,00,47,22.80
2014,07,14,00,48,22.80
2014,07,14,00,49,22.80
2014,07,14,00,50,22.80
2014,07,14,00,51,22.70
2014,07,14,00,52,22.70
2014,07,14,00,53,22.70
2014,07,14,00,54,22.60
2014,07,14,00,55,22.60
2014,07,14,00,56,22.60
2014,07,14,00,57,22.50
2014,07,14,00,58,22.50
2014,07,14,00,59,22.40
2014,07,14,01,00,22.40
2014,07,14,01,01,22.40
2014,07,14,01,02,22.40
2014,07,14,01,03,22.30
2014,07,14,01,04,22.30
2014,07,14,01,05,22.30
2014,07,14,01,06,22.30
2014,07,14,01,07,22.20
2014,07,14,01,08,22.20
2014,07,14,01,09,22.20
2014,07,14,01,10,22.10
2014,07,14,01,11,22.10
2014,07,14,01,12,22.10
2014,07,14,01,13,22.10
2014,07,14,01,14,22.10
2014,07,14,01,15,22.00
2014,07,14,01,16,22.00
2014,07,14,01,17,22.00
2014,07,14,01,18,22.00
2014,07,14,01,19,21.90
2014,07,14,01,20,21.90
2014,07,14,01,21,21.90
2014,07,14,01,22,22.00
2014,07,14,01,23,22.00
2014,07,14,01,24,22.00
2014,07,14,01,25,22.00
2014,07,14,01,26,22.00
2014,07,14,01,27,22.00
2014,07,14,01,28,22.00
2014,07,14,01,29,22.00
2014,07,14,01,30,22.00
2014,07,14,01,31,21.90
2014,07,14,01,32,21.90
2014,07,14,01,33,21.90
2014,07,14,01,34,21.90
2014,07,14,01,35,21.90
2014,07,14,01,36,21.80
2014,07,14,01,37,21.80
2014,07,14,01,38,21.80
2014,07,14,01,39,21.80
2014,07,14,01,40,21.70
2014,07,14,01,41,21.70
2014,07,14,01,42,21.70
2014,07,14,01,43,21.70
2014,07,14,01,44,21.70
2014,07,14,01,45,21.70
2014,07,14,01,46,21.70
2014,07,14,01,47,21.70
2014,07,14,01,48,21.70
2014,07,14,01,49,21.70
2014,07,14,01,50,21.60
2014,07,14,01,51,21.70
2014,07,14,01,52,21.70
2014,07,14,01,53,21.70
2014,07,14,01,54,21.70
2014,07,14,01,55,21.60
2014,07,14,01,56,21.60
2014,07,14,01,57,21.60
2014,07,14,01,58,21.50
2014,07,14,01,59,21.50
2014,07,14,02,00,21.50
2014,07,14,02,01,21.40
2014,07,14,02,02,21.40
2014,07,14,02,03,21.40
2014,07,14,02,04,21.30
2014,07,14,02,05,21.30
2014,07,14,02,06,21.30
2014,07,14,02,07,21.30
2014,07,14,02,08,21.30
2014,07,14,02,09,21.30
2014,07,14,02,10,21.30
2014,07,14,02,11,21.30
2014,07,14,02,12,21.30
2014,07,14,02,13,21.30
2014,07,14,02,14,21.30
2014,07,14,02,15,21.30
2014,07,14,02,16,21.30
2014,07,14,02,17,21.30
2014,07,14,02,18,21.30
2014,07,14,02,19,21.30
2014,07,14,02,20,21.40
2014,07,14,02,21,21.40
2014,07,14,02,22,21.40
2014,07,14,02,23,21.40
2014,07,14,02,24,21.40
2014,07,14,02,25,21.50
2014,07,14,02,26,21.50
2014,07,14,02,27,21.60
2014,07,14,02,28,21.60
2014,07,14,02,29,21.60
2014,07,14,02,30,21.60
2014,07,14,02,31,21.60
2014,07,14,02,32,21.60
2014,07,14,02,33,21.50
2014,07,14,02,34,21.50
2014,07,14,02,35,21.50
2014,07,14,02,36,21.50
2014,07,14,02,37,21.40
2014,07,14,02,38,21.40
2014,07,14,02,39,21.40
2014,07,14,02,40,21.40
2014,07,14,02,41,21.40
2014,07,14,02,42,21.40
2014,07,14,02,43,21.40
2014,07,14,02,44,21.40
2014,07,14,02,45,21.40
2014,07,14,02,46,21.40
2014,07,14,02,47,21.40
2014,07,14,02,48,21.40
2014,07,14,02,49,21.40
2014,07,14,02,50,21.40
2014,07,14,02,51,21.40
2014,07,14,02,52,21.40
2014,07,14,02,53,21.40
2014,07,14,02,54,21.30
2014,07,14,02,55,21.30
2014,07,14,02,56,21.30
2014,07,14,02,57,21.30
2014,07,14,02,58,21.30
2014,07,14,02,59,21.30
2014,07,14,03,00,21.30
2014,07,14,03,01,21.30
2014,07,14,03,02,21.30
2014,07,14,03,03,21.30
2014,07,14,03,04,21.20
2014,07,14,03,05,21.20
2014,07,14,03,06,21.20
2014,07,14,03,07,21.20
2014,07,14,03,08,21.20
2014,07,14,03,09,21.20
2014,07,14,03,10,21.20
2014,07,14,03,11,21.20
2014,07,14,03,12,21.10
2014,07,14,03,13,21.10
2014,07,14,03,14,21.10
2014,07,14,03,15,21.10
2014,07,14,03,16,21.10
2014,07,14,03,17,21.10
2014,07,14,03,18,21.10
2014,07,14,03,19,21.10
2014,07,14,03,20,21.10
2014,07,14,03,21,21.00
2014,07,14,03,22,21.00
2014,07,14,03,23,21.00
2014,07,14,03,24,21.00
2014,07,14,03,25,20.90
2014,07,14,03,26,20.90
2014,07,14,03,27,20.90
2014,07,14,03,28,20.90
2014,07,14,03,29,20.80
2014,07,14,03,30,20.80
2014,07,14,03,31,20.80
2014,07,14,03,32,20.80
2014,07,14,03,33,20.80
2014,07,14,03,34,20.70
2014,07,14,03,35,20.70
2014,07,14,03,36,20.70
2014,07,14,03,37,20.70
2014,07,14,03,38,20.60
2014,07,14,03,39,20.60
2014,07,14,03,40,20.50
2014,07,14,03,41,20.50
2014,07,14,03,42,20.40
2014,07,14,03,43,20.40
2014,07,14,03,44,20.40
2014,07,14,03,45,20.40
2014,07,14,03,46,20.40
2014,07,14,03,47,20.40
2014,07,14,03,48,20.40
2014,07,14,03,49,20.40
2014,07,14,03,50,20.40
2014,07,14,03,51,20.40
2014,07,14,03,52,20.30
2014,07,14,03,53,20.30
2014,07,14,03,54,20.30
2014,07,14,03,55,20.30
2014,07,14,03,56,20.20
2014,07,14,03,57,20.20
2014,07,14,03,58,20.20
2014,07,14,03,59,20.20
2014,07,14,04,00,20.20
2014,07,14,04,01,20.20
2014,07,14,04,02,20.10
2014,07,14,04,03,20.10
2014,07,14,04,04,20.10
2014,07,14,04,05,20.10
2014,07,14,04,06,20.10
2014,07,14,04,07,20.10
2014,07,14,04,08,20.00
2014,07,14,04,09,20.00
2014,07,14,04,10,20.00
2014,07,14,04,11,20.00
2014,07,14,04,12,20.00
2014,07,14,04,13,20.00
2014,07,14,04,14,19.90
2014,07,14,04,15,19.90
2014,07,14,04,16,19.90
2014,07,14,04,17,19.90
2014,07,14,04,18,19.90
2014,07,14,04,19,19.90
2014,07,14,04,20,19.90
2014,07,14,04,21,19.90
2014,07,14,04,22,19.90
2014,07,14,04,23,19.90
2014,07,14,04,24,19.90
2014,07,14,04,25,19.90
2014,07,14,04,26,19.90
2014,07,14,04,27,19.80
2014,07,14,04,28,19.80
2014,07,14,04,29,19.80
2014,07,14,04,30,19.80
2014,07,14,04,31,19.80
2014,07,14,04,32,19.80
2014,07,14,04,33,19.80
2014,07,14,04,34,19.80
2014,07,14,04,35,19.80
2014,07,14,04,36,19.70
2014,07,14,04,37,19.70
2014,07,14,04,38,19.70
2014,07,14,04,39,19.70
2014,07,14,04,40,19.70
2014,07,14,04,41,19.70
2014,07,14,04,42,19.60
2014,07,14,04,43,19.60
2014,07,14,04,44,19.50
2014,07,14,04,45,19.50
2014,07,14,04,46,19.50
2014,07,14,04,47,19.50
2014,07,14,04,48,19.50
2014,07,14,04,49,19.50
2014,07,14,04,50,19.50
2014,07,14,04,51,19.50
2014,07,14,04,52,19.50
2014,07,14,04,53,19.40
2014,07,14,04,54,19.50
2014,07,14,04,55,19.40
2014,07,14,04,56,19.40
2014,07,14,04,57,19.40
2014,07,14,04,58,19.40
2014,07,14,04,59,19.40
2014,07,14,05,00,19.40
2014,07,14,05,01,19.30
2014,07,14,05,02,19.30
2014,07,14,05,03,19.30
2014,07,14,05,04,19.30
2014,07,14,05,05,19.30
2014,07,14,05,06,19.20
2014,07,14,05,07,19.20
2014,07,14,05,08,19.20
2014,07,14,05,09,19.20
2014,07,14,05,10,19.20
2014,07,14,05,11,19.10
2014,07,14,05,12,19.10
2014,07,14,05,13,19.10
2014,07,14,05,14,19.10
2014,07,14,05,15,19.10
2014,07,14,05,16,19.10
2014,07,14,05,17,19.10
2014,07,14,05,18,19.00
2014,07,14,05,19,19.00
2014,07,14,05,20,19.00
2014,07,14,05,21,18.90
2014,07,14,05,22,18.90
2014,07,14,05,23,18.90
2014,07,14,05,24,18.90
2014,07,14,05,25,18.90
2014,07,14,05,26,18.90
2014,07,14,05,27,18.90
2014,07,14,05,28,18.80
2014,07,14,05,29,18.80
2014,07,14,05,30,18.80
2014,07,14,05,31,18.80
2014,07,14,05,32,18.70
2014,07,14,05,33,18.70
2014,07,14,05,34,18.70
2014,07,14,05,35,18.60
2014,07,14,05,36,18.60
2014,07,14,05,37,18.60
2014,07,14,05,38,18.50
2014,07,14,05,39,18.50
2014,07,14,05,40,18.50
2014,07,14,05,41,18.50
2014,07,14,05,42,18.40
2014,07,14,05,43,18.40
2014,07,14,05,44,18.40
2014,07,14,05,45,18.50
2014,07,14,05,46,18.50
2014,07,14,05,47,18.50
2014,07,14,05,48,18.50
2014,07,14,05,49,18.40
2014,07,14,05,50,18.40
2014,07,14,05,51,18.40
2014,07,14,05,52,18.40
2014,07,14,05,53,18.30
2014,07,14,05,54,18.30
2014,07,14,05,55,18.30
2014,07,14,05,56,18.30
2014,07,14,05,57,18.30
2014,07,14,05,58,18.30
2014,07,14,05,59,18.30
2014,07,14,06,00,18.30
2014,07,14,06,01,18.30
2014,07,14,06,02,18.30
2014,07,14,06,03,18.30
2014,07,14,06,04,18.30
2014,07,14,06,05,18.30
2014,07,14,06,06,18.30
2014,07,14,06,07,18.30
2014,07,14,06,08,18.30
2014,07,14,06,09,18.20
2014,07,14,06,10,18.20
2014,07,14,06,11,18.20
2014,07,14,06,12,18.20
2014,07,14,06,13,18.20
2014,07,14,06,14,18.20
2014,07,14,06,15,18.20
2014,07,14,06,16,18.20
2014,07,14,06,17,18.20
2014,07,14,06,18,18.10
2014,07,14,06,19,18.10
2014,07,14,06,20,18.10
2014,07,14,06,21,18.10
2014,07,14,06,22,18.10
2014,07,14,06,23,18.10
2014,07,14,06,24,18.10
2014,07,14,06,25,18.10
2014,07,14,06,26,18.10
2014,07,14,06,27,18.10
2014,07,14,06,28,18.00
2014,07,14,06,29,18.00
2014,07,14,06,30,18.00
2014,07,14,06,31,18.00
2014,07,14,06,32,17.90
2014,07,14,06,33,17.90
2014,07,14,06,34,17.90
2014,07,14,06,35,17.90
2014,07,14,06,36,17.80
2014,07,14,06,37,17.80
2014,07,14,06,38,17.80
2014,07,14,06,39,17.80
2014,07,14,06,40,17.80
2014,07,14,06,41,17.80
2014,07,14,06,42,17.80
2014,07,14,06,43,17.80
2014,07,14,06,44,17.80
2014,07,14,06,45,17.80
2014,07,14,06,46,17.80
2014,07,14,06,47,17.80
2014,07,14,06,48,17.80
2014,07,14,06,49,17.70
2014,07,14,06,50,17.70
2014,07,14,06,51,17.70
2014,07,14,06,52,17.70
2014,07,14,06,53,17.70
2014,07,14,06,54,17.60
2014,07,14,06,55,17.60
2014,07,14,06,56,17.60
2014,07,14,06,57,17.60
2014,07,14,06,58,17.60
2014,07,14,06,59,17.60
2014,07,14,07,00,17.50
2014,07,14,07,01,17.50
2014,07,14,07,02,17.60
2014,07,14,07,03,17.50
2014,07,14,07,04,17.60
2014,07,14,07,05,17.60
2014,07,14,07,06,17.60
2014,07,14,07,07,17.60
2014,07,14,07,08,17.60
2014,07,14,07,09,17.70
2014,07,14,07,10,17.70
2014,07,14,07,11,17.70
2014,07,14,07,12,17.80
2014,07,14,07,13,17.80
2014,07,14,07,14,17.80
2014,07,14,07,15,17.80
2014,07,14,07,16,17.80
2014,07,14,07,17,17.80
2014,07,14,07,18,17.80
2014,07,14,07,19,17.90
2014,07,14,07,20,17.90
2014,07,14,07,21,17.90
2014,07,14,07,22,17.90
2014,07,14,07,23,18.00
2014,07,14,07,24,18.00
2014,07,14,07,25,18.00
2014,07,14,07,26,18.00
2014,07,14,07,27,18.10
2014,07,14,07,28,18.10
2014,07,14,07,29,18.10
2014,07,14,07,30,18.10
2014,07,14,07,31,18.10
2014,07,14,07,32,18.10
2014,07,14,07,33,18.00
2014,07,14,07,34,18.00
2014,07,14,07,35,18.00
2014,07,14,07,36,18.00
2014,07,14,07,37,18.00
2014,07,14,07,38,18.00
2014,07,14,07,39,18.00
2014,07,14,07,40,18.00
2014,07,14,07,41,18.00
2014,07,14,07,42,18.00
2014,07,14,07,43,18.00
2014,07,14,07,44,18.00
2014,07,14,07,45,18.00
2014,07,14,07,46,18.00
2014,07,14,07,47,18.00
2014,07,14,07,48,18.00
2014,07,14,07,49,18.10
2014,07,14,07,50,18.10
2014,07,14,07,51,18.20
2014,07,14,07,52,18.30
2014,07,14,07,53,18.30
2014,07,14,07,54,18.40
2014,07,14,07,55,18.50
2014,07,14,07,56,18.60
2014,07,14,07,57,18.70
2014,07,14,07,58,18.80
2014,07,14,07,59,18.80
2014,07,14,08,00,18.90
2014,07,14,08,01,18.90
2014,07,14,08,02,19.00
2014,07,14,08,03,19.00
2014,07,14,08,04,19.00
2014,07,14,08,05,19.10
2014,07,14,08,06,19.10
2014,07,14,08,07,19.10
2014,07,14,08,08,19.10
2014,07,14,08,09,19.20
2014,07,14,08,10,19.20
2014,07,14,08,11,19.20
2014,07,14,08,12,19.30
2014,07,14,08,13,19.30
2014,07,14,08,14,19.30
2014,07,14,08,15,19.40
2014,07,14,08,16,19.40
2014,07,14,08,17,19.50
2014,07,14,08,18,19.50
2014,07,14,08,19,19.60
2014,07,14,08,20,19.70
2014,07,14,08,21,19.70
2014,07,14,08,22,19.80
2014,07,14,08,23,19.90
2014,07,14,08,24,20.00
2014,07,14,08,25,20.10
2014,07,14,08,26,20.20
2014,07,14,08,27,20.20
2014,07,14,08,28,20.20
2014,07,14,08,29,20.30
2014,07,14,08,30,20.30
2014,07,14,08,31,20.30
2014,07,14,08,32,20.40
2014,07,14,08,33,20.40
2014,07,14,08,34,20.40
2014,07,14,08,35,20.50
2014,07,14,08,36,20.50
2014,07,14,08,37,20.60
2014,07,14,08,38,20.60
2014,07,14,08,39,20.60
2014,07,14,08,40,20.70
2014,07,14,08,41,20.70
2014,07,14,08,42,20.70
2014,07,14,08,43,20.80
2014,07,14,08,44,20.80
2014,07,14,08,45,20.80
2014,07,14,08,46,20.90
2014,07,14,08,47,20.90
2014,07,14,08,48,21.00
2014,07,14,08,49,21.10
2014,07,14,08,50,21.10
2014,07,14,08,51,21.20
2014,07,14,08,52,21.20
2014,07,14,08,53,21.30
2014,07,14,08,54,21.30
2014,07,14,08,55,21.40
2014,07,14,08,56,21.50
2014,07,14,08,57,21.70
2014,07,14,08,58,21.70
2014,07,14,08,59,21.70
2014,07,14,09,00,21.70
2014,07,14,09,01,21.70
2014,07,14,09,02,21.70
2014,07,14,09,03,21.70
2014,07,14,09,04,21.60
2014,07,14,09,05,21.60
2014,07,14,09,06,21.60
2014,07,14,09,07,21.70
2014,07,14,09,08,21.70
2014,07,14,09,09,21.70
2014,07,14,09,10,21.70
2014,07,14,09,11,21.80
2014,07,14,09,12,21.80
2014,07,14,09,13,21.90
2014,07,14,09,14,21.90
2014,07,14,09,15,21.90
2014,07,14,09,16,22.00
2014,07,14,09,17,22.00
2014,07,14,09,18,22.10
2014,07,14,09,19,22.10
2014,07,14,09,20,22.20
2014,07,14,09,21,22.20
2014,07,14,09,22,22.30
2014,07,14,09,23,22.30
2014,07,14,09,24,22.30
2014,07,14,09,25,22.30
2014,07,14,09,26,22.30
2014,07,14,09,27,22.40
2014,07,14,09,28,22.50
2014,07,14,09,29,22.50
2014,07,14,09,30,22.60
2014,07,14,09,31,22.70
2014,07,14,09,32,22.70
2014,07,14,09,33,22.70
2014,07,14,09,34,22.70
2014,07,14,09,35,22.80
2014,07,14,09,36,22.70
2014,07,14,09,37,22.70
2014,07,14,09,38,22.70
2014,07,14,09,39,22.70
2014,07,14,09,40,22.70
2014,07,14,09,41,22.70
2014,07,14,09,42,22.70
2014,07,14,09,43,22.70
2014,07,14,09,44,22.70
2014,07,14,09,45,22.70
2014,07,14,09,46,22.70
2014,07,14,09,47,22.70
2014,07,14,09,48,22.70
2014,07,14,09,49,22.70
2014,07,14,09,50,22.80
2014,07,14,09,51,22.80
2014,07,14,09,52,22.90
2014,07,14,09,53,22.90
2014,07,14,09,54,22.90
2014,07,14,09,55,23.00
2014,07,14,09,56,23.00
2014,07,14,09,57,23.00
2014,07,14,09,58,23.00
2014,07,14,09,59,22.90
2014,07,14,10,00,22.80
2014,07,14,10,01,22.80
2014,07,14,10,02,22.80
2014,07,14,10,03,22.80
2014,07,14,10,04,22.80
2014,07,14,10,05,22.70
2014,07,14,10,06,22.70
2014,07,14,10,07,22.70
2014,07,14,10,08,22.70
2014,07,14,10,09,22.70
2014,07,14,10,10,22.70
2014,07,14,10,11,22.70
2014,07,14,10,12,22.70
2014,07,14,10,13,22.70
2014,07,14,10,14,22.70
2014,07,14,10,15,22.70
2014,07,14,10,16,22.70
2014,07,14,10,17,22.70
2014,07,14,10,18,22.80
2014,07,14,10,19,22.80
2014,07,14,10,20,22.90
2014,07,14,10,21,23.00
2014,07,14,10,22,23.00
2014,07,14,10,23,23.10
2014,07,14,10,24,23.10
2014,07,14,10,25,23.20
2014,07,14,10,26,23.20
2014,07,14,10,27,23.30
2014,07,14,10,28,23.40
2014,07,14,10,29,23.50
2014,07,14,10,30,23.50
2014,07,14,10,31,23.60
2014,07,14,10,32,23.70
2014,07,14,10,33,23.80
2014,07,14,10,34,23.90
2014,07,14,10,35,24.00
2014,07,14,10,36,24.10
2014,07,14,10,37,24.10
2014,07,14,10,38,24.20
2014,07,14,10,39,24.10
2014,07,14,10,40,24.00
2014,07,14,10,41,23.90
2014,07,14,10,42,23.90
2014,07,14,10,43,23.90
2014,07,14,10,44,23.90
2014,07,14,10,45,24.00
2014,07,14,10,46,24.00
2014,07,14,10,47,24.10
2014,07,14,10,48,24.20
2014,07,14,10,49,24.20
2014,07,14,10,50,24.30
2014,07,14,10,51,24.30
2014,07,14,10,52,24.30
2014,07,14,10,53,24.40
2014,07,14,10,54,24.50
2014,07,14,10,55,24.60
2014,07,14,10,56,24.60
2014,07,14,10,57,24.60
2014,07,14,10,58,24.60
2014,07,14,10,59,24.70
2014,07,14,11,00,24.70
2014,07,14,11,01,24.70
2014,07,14,11,02,24.70
2014,07,14,11,03,24.70
2014,07,14,11,04,24.80
2014,07,14,11,05,24.80
2014,07,14,11,06,24.70
2014,07,14,11,07,24.70
2014,07,14,11,08,24.60
2014,07,14,11,09,24.60
2014,07,14,11,10,24.50
2014,07,14,11,11,24.40
2014,07,14,11,12,24.40
2014,07,14,11,13,24.40
2014,07,14,11,14,24.50
2014,07,14,11,15,24.60
2014,07,14,11,16,24.70
2014,07,14,11,17,24.70
2014,07,14,11,18,24.70
2014,07,14,11,19,24.80
2014,07,14,11,20,24.70
2014,07,14,11,21,24.70
2014,07,14,11,22,24.70
2014,07,14,11,23,24.60
2014,07,14,11,24,24.60
2014,07,14,11,25,24.60
2014,07,14,11,26,24.60
2014,07,14,11,27,24.60
2014,07,14,11,28,24.70
2014,07,14,11,29,24.70
2014,07,14,11,30,24.80
2014,07,14,11,31,24.80
2014,07,14,11,32,24.90
2014,07,14,11,33,24.90
2014,07,14,11,34,25.00
2014,07,14,11,35,25.10
2014,07,14,11,36,25.10
2014,07,14,11,37,25.20
2014,07,14,11,38,25.20
2014,07,14,11,39,25.20
2014,07,14,11,40,25.30
2014,07,14,11,41,25.30
2014,07,14,11,42,25.30
2014,07,14,11,43,25.30
2014,07,14,11,44,25.30
2014,07,14,11,45,25.30
2014,07,14,11,46,25.40
2014,07,14,11,47,25.40
2014,07,14,11,48,25.50
2014,07,14,11,49,25.60
2014,07,14,11,50,25.70
2014,07,14,11,51,25.70
2014,07,14,11,52,25.80
2014,07,14,11,53,25.90
2014,07,14,11,54,25.90
2014,07,14,11,55,26.00
2014,07,14,11,56,26.10
2014,07,14,11,57,26.20
2014,07,14,11,58,26.10
2014,07,14,11,59,26.10
2014,07,14,12,00,26.10
2014,07,14,12,01,26.10
2014,07,14,12,02,26.20
2014,07,14,12,03,26.30
2014,07,14,12,04,26.30
2014,07,14,12,05,26.30
2014,07,14,12,06,26.40
2014,07,14,12,07,26.50
2014,07,14,12,08,26.50
2014,07,14,12,09,26.60
2014,07,14,12,10,26.70
2014,07,14,12,11,26.80
2014,07,14,12,12,26.80
2014,07,14,12,13,26.80
2014,07,14,12,14,26.90
2014,07,14,12,15,27.00
2014,07,14,12,16,27.10
2014,07,14,12,17,27.20
2014,07,14,12,18,27.20
2014,07,14,12,19,27.30
2014,07,14,12,20,27.30
2014,07,14,12,21,27.40
2014,07,14,12,22,27.50
2014,07,14,12,23,27.60
2014,07,14,12,24,27.70
2014,07,14,12,25,27.70
2014,07,14,12,26,27.80
2014,07,14,12,27,27.80
2014,07,14,12,28,27.80
2014,07,14,12,29,27.90
2014,07,14,12,30,27.90
2014,07,14,12,31,27.90
2014,07,14,12,32,28.00
2014,07,14,12,33,28.00
2014,07,14,12,34,27.90
2014,07,14,12,35,28.00
2014,07,14,12,36,28.10
2014,07,14,12,37,28.10
2014,07,14,12,38,28.10
2014,07,14,12,39,28.20
2014,07,14,12,40,28.20
2014,07,14,12,41,28.20
2014,07,14,12,42,28.30
2014,07,14,12,43,28.40
2014,07,14,12,44,28.40
2014,07,14,12,45,28.50
2014,07,14,12,46,28.60
2014,07,14,12,47,28.70
2014,07,14,12,48,28.70
2014,07,14,12,49,28.70
2014,07,14,12,50,28.80
2014,07,14,12,51,28.80
2014,07,14,12,52,28.90
2014,07,14,12,53,29.00
2014,07,14,12,54,29.10
2014,07,14,12,55,29.20
2014,07,14,12,56,29.30
2014,07,14,12,57,29.40
2014,07,14,12,58,29.40
2014,07,14,12,59,29.40
2014,07,14,13,00,29.40
2014,07,14,13,01,29.40
2014,07,14,13,02,29.50
2014,07,14,13,03,29.50
2014,07,14,13,04,29.60
2014,07,14,13,05,29.70
2014,07,14,13,06,29.70
2014,07,14,13,07,29.80
2014,07,14,13,08,29.80
2014,07,14,13,09,29.90
2014,07,14,13,10,30.00
2014,07,14,13,11,30.00
2014,07,14,13,12,30.10
2014,07,14,13,13,30.20
2014,07,14,13,14,30.10
2014,07,14,13,15,30.10
2014,07,14,13,16,30.10
2014,07,14,13,17,30.10
2014,07,14,13,18,30.00
2014,07,14,13,19,30.00
2014,07,14,13,20,30.00
2014,07,14,13,21,30.00
2014,07,14,13,22,29.90
2014,07,14,13,23,29.90
2014,07,14,13,24,29.90
2014,07,14,13,25,29.90
2014,07,14,13,26,30.00
2014,07,14,13,27,30.10
2014,07,14,13,28,30.20
2014,07,14,13,29,30.20
2014,07,14,13,30,30.30
2014,07,14,13,31,30.40
2014,07,14,13,32,30.40
2014,07,14,13,33,30.40
2014,07,14,13,34,30.50
2014,07,14,13,35,30.50
2014,07,14,13,36,30.50
2014,07,14,13,37,30.50
2014,07,14,13,38,30.60
2014,07,14,13,39,30.60
2014,07,14,13,40,30.60
2014,07,14,13,41,30.60
2014,07,14,13,42,30.50
2014,07,14,13,43,30.40
2014,07,14,13,44,30.50
2014,07,14,13,45,30.60
2014,07,14,13,46,30.60
2014,07,14,13,47,30.60
2014,07,14,13,48,30.70
2014,07,14,13,49,30.70
2014,07,14,13,50,30.60
2014,07,14,13,51,30.60
2014,07,14,13,52,30.60
2014,07,14,13,53,30.70
2014,07,14,13,54,30.80
2014,07,14,13,55,30.80
2014,07,14,13,56,30.90
2014,07,14,13,57,31.00
2014,07,14,13,58,31.00
2014,07,14,13,59,31.10
2014,07,14,14,00,31.10
2014,07,14,14,01,31.10
2014,07,14,14,02,31.10
2014,07,14,14,03,31.10
2014,07,14,14,04,31.10
2014,07,14,14,05,31.20
2014,07,14,14,06,31.30
2014,07,14,14,07,31.30
2014,07,14,14,08,31.40
2014,07,14,14,09,31.50
2014,07,14,14,10,31.50
2014,07,14,14,11,31.40
2014,07,14,14,12,31.40
2014,07,14,14,13,31.40
2014,07,14,14,14,31.30
2014,07,14,14,15,31.20
2014,07,14,14,16,31.20
2014,07,14,14,17,31.20
2014,07,14,14,18,31.20
2014,07,14,14,19,31.30
2014,07,14,14,20,31.30
2014,07,14,14,21,31.30
2014,07,14,14,22,31.40
2014,07,14,14,23,31.50
2014,07,14,14,24,31.50
2014,07,14,14,25,31.60
2014,07,14,14,26,31.50
2014,07,14,14,27,31.50
2014,07,14,14,28,31.30
2014,07,14,14,29,31.30
2014,07,14,14,30,31.30
2014,07,14,14,31,31.30
2014,07,14,14,32,31.30
2014,07,14,14,33,31.40
2014,07,14,14,34,31.40
2014,07,14,14,35,31.50
2014,07,14,14,36,31.50
2014,07,14,14,37,31.40
2014,07,14,14,38,31.40
2014,07,14,14,39,31.30
2014,07,14,14,40,31.30
2014,07,14,14,41,31.30
2014,07,14,14,42,31.30
2014,07,14,14,43,31.40
2014,07,14,14,44,31.40
2014,07,14,14,45,31.50
2014,07,14,14,46,31.60
2014,07,14,14,47,31.70
2014,07,14,14,48,31.80
2014,07,14,14,49,31.80
2014,07,14,14,50,31.90
2014,07,14,14,51,32.00
2014,07,14,14,52,32.00
2014,07,14,14,53,32.10
2014,07,14,14,54,32.00
2014,07,14,14,55,32.00
2014,07,14,14,56,31.90
2014,07,14,14,57,31.90
2014,07,14,14,58,31.90
2014,07,14,14,59,31.90
2014,07,14,15,00,32.00
2014,07,14,15,01,32.00
2014,07,14,15,02,32.10
2014,07,14,15,03,32.10
2014,07,14,15,04,32.20
2014,07,14,15,05,32.20
2014,07,14,15,06,32.20
2014,07,14,15,07,32.20
2014,07,14,15,08,32.20
2014,07,14,15,09,32.30
2014,07,14,15,10,32.30
2014,07,14,15,11,32.40
2014,07,14,15,12,32.40
2014,07,14,15,13,32.40
2014,07,14,15,14,32.40
2014,07,14,15,15,32.50
2014,07,14,15,16,32.50
2014,07,14,15,17,32.40
2014,07,14,15,18,32.20
2014,07,14,15,19,32.10
2014,07,14,15,20,32.00
2014,07,14,15,21,31.90
2014,07,14,15,22,31.80
2014,07,14,15,23,31.70
2014,07,14,15,24,31.70
2014,07,14,15,25,31.70
2014,07,14,15,26,31.70
2014,07,14,15,27,31.80
2014,07,14,15,28,31.90
2014,07,14,15,29,32.00
2014,07,14,15,30,32.10
2014,07,14,15,31,32.10
2014,07,14,15,32,32.10
2014,07,14,15,33,32.10
2014,07,14,15,34,32.10
2014,07,14,15,35,32.10
2014,07,14,15,36,32.00
2014,07,14,15,37,32.00
2014,07,14,15,38,32.00
2014,07,14,15,39,32.00
2014,07,14,15,40,32.00
2014,07,14,15,41,32.00
2014,07,14,15,42,31.90
2014,07,14,15,43,31.80
2014,07,14,15,44,31.80
2014,07,14,15,45,31.80
2014,07,14,15,46,31.70
2014,07,14,15,47,31.70
2014,07,14,15,48,31.70
2014,07,14,15,49,31.70
2014,07,14,15,50,31.70
2014,07,14,15,51,31.70
2014,07,14,15,52,31.80
2014,07,14,15,53,31.80
2014,07,14,15,54,31.70
2014,07,14,15,55,31.70
2014,07,14,15,56,31.60
2014,07,14,15,57,31.50
2014,07,14,15,58,31.50
2014,07,14,15,59,31.50
2014,07,14,16,00,31.50
2014,07,14,16,01,31.60
2014,07,14,16,02,31.60
2014,07,14,16,03,31.70
2014,07,14,16,04,31.70
2014,07,14,16,05,31.70
2014,07,14,16,06,31.80
2014,07,14,16,07,31.90
2014,07,14,16,08,31.90
2014,07,14,16,09,32.00
2014,07,14,16,10,32.10
2014,07,14,16,11,32.20
2014,07,14,16,12,32.30
2014,07,14,16,13,32.30
2014,07,14,16,14,32.30
2014,07,14,16,15,32.40
2014,07,14,16,16,32.40
2014,07,14,16,17,32.20
2014,07,14,16,18,32.20
2014,07,14,16,19,32.10
2014,07,14,16,20,32.10
2014,07,14,16,21,32.10
2014,07,14,16,22,32.10
2014,07,14,16,23,32.10
2014,07,14,16,24,32.20
2014,07,14,16,25,32.20
2014,07,14,16,26,32.30
2014,07,14,16,27,32.30
2014,07,14,16,28,32.30
2014,07,14,16,29,32.40
2014,07,14,16,30,32.40
2014,07,14,16,31,32.40
2014,07,14,16,32,32.50
2014,07,14,16,33,32.40
2014,07,14,16,34,32.40
2014,07,14,16,35,32.40
2014,07,14,16,36,32.30
2014,07,14,16,37,32.30
2014,07,14,16,38,32.30
2014,07,14,16,39,32.30
2014,07,14,16,40,32.30
2014,07,14,16,41,32.30
2014,07,14,16,42,32.40
2014,07,14,16,43,32.40
2014,07,14,16,44,32.50
2014,07,14,16,45,32.50
2014,07,14,16,46,32.60
2014,07,14,16,47,32.70
2014,07,14,16,48,32.70
2014,07,14,16,49,32.70
2014,07,14,16,50,32.80
2014,07,14,16,51,32.80
2014,07,14,16,52,32.90
2014,07,14,16,53,32.90
2014,07,14,16,54,32.90
2014,07,14,16,55,32.90
2014,07,14,16,56,32.90
2014,07,14,16,57,32.90
2014,07,14,16,58,32.90
2014,07,14,16,59,32.90
2014,07,14,17,00,32.90
2014,07,14,17,01,32.90
2014,07,14,17,02,32.90
2014,07,14,17,03,32.90
2014,07,14,17,04,33.00
2014,07,14,17,05,33.00
2014,07,14,17,06,33.00
2014,07,14,17,07,32.90
2014,07,14,17,08,32.80
2014,07,14,17,09,32.70
2014,07,14,17,10,32.70
2014,07,14,17,11,32.70
2014,07,14,17,12,32.70
2014,07,14,17,13,32.70
2014,07,14,17,14,32.80
2014,07,14,17,15,32.80
2014,07,14,17,16,32.80
2014,07,14,17,17,32.80
2014,07,14,17,18,32.90
2014,07,14,17,19,32.90